Content
SEND FEEDBACK

Daily
Averages
Monthly
Summary
Czech Republic

BRNO, CZECH REPUBLIC


Home > Europe > Czech Republic
Elevation: 807 feet     Latitude: 49 09N     Longitude: 016 42E

WEATHER
 
SELECT A DAY
Number of Records: 286,767;   Date Range: 2/20/97 - 8/10/14
 
SHARE

PRINT THIS DATA

[ ← Previous Day ]
WEATHER ALMANAC - NOVEMBER 21, 2013
[ Next Day → ]
[ °C ]   °F
Weather ElementAverageHighLow
Temperature39.4 °F44.6 °F (11:00 pm)30.2 °F (5:30 am)
Dewpoint37.3 °F42.8 °F (9:00 pm)30.2 °F (4:30 am)
Humidity92 %100 % (2:00 am)83 % (1:00 pm)
Barometer29.59 in29.67 in (1:00 am)29.53 in (2:00 pm)
Wind Speed7.7 mph13.8 mph (2:00 pm)
Weather ElementAverage
Visibility6.1 mi
Wind DirectionENE (57.8 °)

Weather ElementTotal
Precipitation---
Heating Degree Days27.6 (Base 65)
Averaged from 54 records on November 21, 2013
WEATHER CONDITIONS BREAKOUT
WIND DIRECTION BREAKOUT
WEATHER BY HOUR - NOVEMBER 21, 2013
[ °C ]   °F
Local TimeTemperatureDewpointHumidityBarometerVisibilityWind DirectionWind SpeedGust SpeedPrecipitationEventsConditions
12:30 AM35.6 °F33.8 °F93 %29.62 in6.2 miCalmPartly Cloudy
1:00 AM35.0 °F33.0 °F90 %29.67 in11.0 miSSW (210°)2.2 mphScattered Clouds
1:00 AM35.6 °F33.8 °F93 %29.62 in6.2 miVariable1.2 mphPartly Cloudy
1:30 AM33.8 °F32.0 °F93 %29.62 inVariable1.2 mphClear
2:00 AM33.8 °F33.8 °F100 %29.62 inVariable2.3 mphClear
2:30 AM33.8 °F32.0 °F93 %29.62 inVariable2.3 mphClear
3:00 AM33.8 °F32.0 °F93 %29.62 inNNE (20°)4.6 mphClear
3:30 AM33.8 °F32.0 °F93 %29.62 inNNE (30°)3.5 mphClear
4:00 AM33.8 °F32.0 °F93 %29.62 inVariable2.3 mphClear
4:30 AM32.0 °F30.2 °F93 %29.62 inENE (60°)4.6 mphClear
5:00 AM33.8 °F32.0 °F93 %29.59 inNNE (20°)5.8 mphClear
5:30 AM30.2 °F30.2 °F100 %29.62 inVariable2.3 mphClear
6:00 AM32.0 °F32.0 °F100 %29.62 in6.2 miCalmMostly Cloudy
6:30 AM33.8 °F32.0 °F93 %29.59 in6.2 miNNE (30°)8.1 mphMostly Cloudy
7:00 AM35.0 °F33.0 °F91 %29.66 in7.0 miNE (50°)8.9 mphMostly Cloudy
7:00 AM35.6 °F33.8 °F93 %29.62 in6.2 miNE (50°)9.2 mphMostly Cloudy
7:30 AM35.6 °F33.8 °F93 %29.62 in6.2 miSE (130°)4.6 mphMostly Cloudy
8:00 AM37.4 °F35.6 °F93 %29.62 in6.2 miEast (100°)6.9 mphMostly Cloudy
8:30 AM37.4 °F35.6 °F93 %29.62 in6.2 miENE (70°)6.9 mphMostly Cloudy
9:00 AM37.4 °F35.6 °F93 %29.62 in6.2 miENE (70°)8.1 mphMostly Cloudy
9:30 AM39.2 °F37.4 °F93 %29.59 in6.2 miENE (70°)9.2 mphMostly Cloudy
10:00 AM41.0 °F37.4 °F87 %29.59 in6.2 miENE (70°)11.5 mphMostly Cloudy
10:30 AM41.0 °F37.4 °F87 %29.59 in6.2 miENE (70°)12.7 mphMostly Cloudy
11:00 AM41.0 °F37.4 °F87 %29.59 in6.2 miENE (70°)10.4 mphMostly Cloudy
11:30 AM41.0 °F37.4 °F87 %29.59 in6.2 miENE (70°)10.4 mphMostly Cloudy
12:00 PM41.0 °F37.4 °F87 %29.59 in6.2 miEast (80°)9.2 mphMostly Cloudy
12:22 PM41.0 °F37.4 °F87 %29.56 in6.2 miEast (80°)10.4 mphRainLight Rain
12:30 PM41.0 °F37.4 °F87 %29.56 in6.2 miEast (80°)10.4 mphRainLight Rain
1:00 PM42.0 °F38.0 °F83 %29.59 in4.0 miENE (60°)8.9 mphRainLight Rain
1:00 PM41.0 °F39.2 °F93 %29.56 in4.3 miENE (70°)10.4 mphRainLight Rain
1:30 PM41.0 °F39.2 °F93 %29.56 in5.6 miENE (60°)11.5 mphRainLight Rain
2:00 PM42.8 °F39.2 °F87 %29.53 in6.2 miENE (60°)13.8 mphOvercast
2:21 PM42.8 °F39.2 °F87 %29.56 in6.2 miEast (80°)12.7 mphRainLight Rain
2:30 PM42.8 °F39.2 °F87 %29.56 in6.2 miEast (80°)12.7 mphRainLight Rain
3:00 PM42.8 °F39.2 °F87 %29.56 in6.2 miEast (90°)11.5 mphRainLight Rain
3:30 PM42.8 °F41.0 °F93 %29.56 in6.2 miENE (70°)9.2 mphRainLight Rain
4:00 PM42.8 °F41.0 °F93 %29.56 in6.2 miENE (60°)9.2 mphRainLight Rain
4:30 PM42.8 °F41.0 °F93 %29.56 in6.2 miENE (70°)8.1 mphRainLight Rain
5:00 PM42.8 °F41.0 °F93 %29.56 in6.2 miENE (60°)6.9 mphRainLight Rain
5:30 PM42.8 °F41.0 °F93 %29.56 in6.2 miENE (60°)9.2 mphRainLight Rain
6:00 PM42.8 °F41.0 °F93 %29.56 in6.2 miENE (60°)9.2 mphRainLight Rain
6:22 PM42.8 °F41.0 °F93 %29.56 in6.2 miENE (60°)6.9 mphRainLight Rain
6:30 PM42.8 °F41.0 °F93 %29.56 in6.2 miENE (60°)6.9 mphRainLight Rain
7:00 PM43.0 °F42.0 °F92 %29.60 in6.0 miENE (60°)8.9 mphRainLight Rain
7:00 PM42.8 °F41.0 °F93 %29.56 in6.2 miENE (60°)9.2 mphRainLight Rain
7:30 PM42.8 °F41.0 °F93 %29.56 in6.2 miENE (60°)9.2 mphRainLight Rain
8:00 PM42.8 °F41.0 °F93 %29.56 in6.2 miENE (70°)10.4 mphRainLight Rain
8:30 PM42.8 °F41.0 °F93 %29.56 in6.2 miENE (70°)8.1 mphRainLight Rain
9:00 PM42.8 °F42.8 °F100 %29.59 in6.2 miENE (60°)9.2 mphRainLight Rain
9:30 PM42.8 °F41.0 °F93 %29.59 in6.2 miENE (60°)8.1 mphRainLight Rain
10:00 PM42.8 °F41.0 °F93 %29.59 in6.2 miENE (60°)9.2 mphOvercast
10:30 PM42.8 °F41.0 °F93 %29.59 in6.2 miNE (50°)6.9 mphOvercast
11:00 PM44.6 °F41.0 °F87 %29.59 in4.3 miENE (60°)9.2 mphOvercast
11:30 PM42.8 °F42.8 °F100 %29.59 in4.3 miEast (80°)9.2 mphOvercast
Hourly data recorded from LKTB, located miles away from Brno, Czech Republic







STORIES FROM OUR PARTNERS